Regional Weather Roundup
Issued by NWS

Home | Current Version | Previous Version | Text Only | Print | Product List | Glossary Off
Versions: 1 2 3 4 5 6 7 8 9 10 11 12 13 14 15 16 17 18 19 20 21 22 23 24 25 26 27 28 29 30 31 32 33 34 35 36 37 38 39 40 41 42 43 44 45 46 47 48 49 50

000
ASUS43 KLMK 200110
RWRKY
KENTUCKY REGIONAL WEATHER ROUNDUP
NATIONAL WEATHER SERVICE LOUISVILLE KY
900 PM EDT SAT AUG 19 2017

NOTE "FAIR" INDICATES FEW OR NO CLOUDS BELOW 12,000 FEET
WITH NO SIGNIFICANT WEATHER AND/OR OBSTRUCTIONS TO VISIBILITY.

KYZ001>023-026-027-061>063-070>075-200200-
WESTERN AND SOUTH CENTRAL KENTUCKY

CITY           SKY/WX    TMP DP  RH WIND       PRES   REMARKS
PADUCAH        CLEAR     79  70  74 CALM      29.92S
HENDERSON      CLEAR     76  73  91 CALM      29.93S
OWENSBORO      CLEAR     83  70  64 CALM      29.94R
HOPKINSVILLE   CLEAR     81  71  70 SE7       29.95R
BOWLING GREEN  CLEAR     82  71  69 SW5       29.96R
GLASGOW        CLEAR     76  68  75 CALM      29.97R
$$

KYZ024-025-028>034-038-045-046-053-200200-
NORTH CENTRAL KENTUCKY

CITY           SKY/WX    TMP DP  RH WIND       PRES   REMARKS
LOUISVILLE/SDF PTCLDY    83  66  56 W6        29.94S
LOUISVILLE/LOU CLEAR     81  67  62 CALM      29.95R
FORT KNOX      CLEAR     74  70  87 CALM      29.94S
$$

KYZ035>037-039>044-047>052-055>060-089>105-200200-
NORTHEAST KENTUCKY

CITY           SKY/WX    TMP DP  RH WIND       PRES   REMARKS
LEXINGTON      PTCLDY    78  67  68 S5        29.98S
COVINGTON      PTCLDY    79  68  69 CALM      29.96R
FRANKFORT      CLEAR     76  69  79 CALM      29.96R
$$

KYZ054-064>069-076>088-106>120-200200-
SOUTHEAST KENTUCKY

CITY           SKY/WX    TMP DP  RH WIND       PRES   REMARKS
JACKSON        CLEAR     77  67  71 CALM      30.01S
LONDON         CLEAR     78  66  66 CALM      30.01R
SOMERSET       CLEAR     73  66  78 CALM      30.01R
MIDDLESBORO    PTCLDY    75  70  83 CALM      30.02R
MONTICELLO     CLEAR     70  68  93 VRB6      30.02R
$$




USA.gov is the U.S. government's official web portal to all federal, state and local government web resources and services.